Location: Killarney
(45.9719°N, 81.5115°W)
Time: 08:26:19
(UTC-04:00)

ISS - Pass Details

Date: 26 April 2025
Orbit: 416 x 419 km, 51.6° (Epoch: 14 May)

Event Time Altitude Azimuth Distance (km) Brightness Sun altitude
Exits shadow 04:43:27 31° 265° (W) 759 -2.9 -15.4°
Maximum altitude 04:44:51 63° 337° (NNW) 468 -3.5 -15.2°
Drops below altitude 10° 04:48:11 10° 59° (ENE) 1,497 0.4 -14.7°
Sets 04:50:18 0° 63° (ENE) 2,364 1.8 -14.5°
